Вернуться в каталог

CZ-6A LOWER FAIRING HALF

АктивенPO
NORAD 65548·DEBRIS·🇨🇳 China
Это название спутника еще не подтверждено официальными источниками.

Запущен Sep 6, 2025 с Taiyuan Satellite Launch Center

Loading…

Ближайшие Пролёты (ближайшие 24 часа)

TLE

СвежийSource: Space-Track

Эпоха: Sep 14, 2026, 16:26 UTC

1 65548U 25199E   26257.68477677  .00000204  00000-0  75392-4 0  9994
2 65548  85.9950 359.8516 0013571 145.8802 214.3265 14.27219108 53161

Отслеживайте CZ-6A LOWER FAIRING HALF в реальном времени с AllMySat

Download on the App Store